Powrót do katalogu

STARLINK-32207

AktywnyŁącznośćVLEO
NORAD 60259·PAYLOAD·🇺🇸 United States

Wystrzelony Jul 27, 2024 z Cape Canaveral Space Force Station

Loading…

Następne Przeloty (najbliższe 24 godziny)

TLE

ŚwieżeSource: CelesTrak SupGP

Epoka: Sep 14, 2026, 20:44 UTC

1 60259C 24131E   26257.86437500  .00056535  00000+0  16706-2 0  2570
2 60259  53.1569 252.2654 0001192  96.6959 241.7943 15.34358533    17

Śledź STARLINK-32207 w czasie rzeczywistym z AllMySat

Download on the App Store